BREEZE-M R/B, 36102

Orbit data source: Space-Track

BREEZE-M R/B, 36102 is space debris in HEO originally from a launch on Tue, 24 Nov 2009 UTC launched from the Tyuratam Missile And Space Complex (TTMTR). Debris objects in space refer to the collection of defunct objects orbiting the Earth. Examples of debris include non-operational satellites, rocket bodies, and fragments generated from explosions, collisions, or faulty payload assembly.

Loading next visibility...
Identifier
36102, 2009-065B
Orbit
HEO
Country
Flag of CISCIS
Related business
Manufacturer
Khrunichev
Mission
Spacecraft
Bus & Motor
BRIZ, Unknown motor
Mass
~1,600 kg wet, 1,600 kg dry
Launch date (UTC)
2009-11-24 (16 years ago)
Launch vehicle
Unknown
Launch site
Tyuratam Missile And Space Complex (TTMTR)
Object type
Payload
Rocket body
Debris
Shape & HBR
Cyl, 2.0 m
Radar Cross Section
14.451 m², Large (>1 m²)

Expand to show TLE details & history
Last TLE update: 1 day ago

TLE from 1 day ago
0 BREEZE-M R/B
1 36102U 09065B   25257.60039164 -.00000015  00000-0  00000-0 0  9999
2 36102  21.1792 278.2224 5880194 154.2350 264.6406  2.20877785127349
Epoch: 2025-09-14T14:24Z
TLE epoch observation values (Epoch: 2025-09-14T14:24:33.837Z)
Latitude
1.7635°
Longitude
72.84303°
Altitude
26,581.546 km
Speed
2.861 km/s
True Right ascension
18h 51m 12s
True Declination
1° 45' 40"
Sunlit
Object was in daylight at epoch
Visualization orbit readout
Latitude
Unknown
Longitude
Unknown
Altitude
Unknown
Speed
Unknown
Apparent Right ascension
Unknown
Apparent Declination
Unknown
Sunlit
N/A
Visualization observer readout
Local Sidereal Time
07:24:34
Azimuth
Unknown
Elevation
Unknown
Doppler factor
Unknown
Orbital elements
Apogee altitude
33,177.048 km
Perigee altitude
3,883.683 km
Semi-major axis
24,908.502 km
Eccentricity
0.58802
Inclination
21.1792°
RAAN
278.2224°
Arg. of periapsis
154.235°
True anomaly
210.6331°
Mean anomaly
264.6406°
Eccentric anomaly
236.53483°
Mean motion
0.55211 °/min
Orbital period
652.05 mins
BSTAR
0
Loading maneuver chart data...
Computing Atmospheric mass density...
Loading historical data...
Loading historical data...
Loading historical data...
Loading historical data...
Loading historical data...
Loading historical data...
Loading historical data...
Other satellites on launch #65 in the year 2009 (2009-11-24 UTC)

Documentation

Showing up to 5 results
|